Content
SEND FEEDBACK

Daily
Averages
Monthly
Summary
United States of America

AUBURN, ALABAMA


Home > North America > United States > Alabama
Elevation: 774 feet     Latitude: 32 36N     Longitude: 085 26W

WEATHER
 
SELECT A DAY
Number of Records: 452,137;   Date Range: 1/1/95 - 9/14/14
 
SHARE

PRINT THIS DATA

[ ← Previous Day ]
WEATHER ALMANAC - JANUARY 31, 2013
[ Next Day → ]
[ °C ]   °F
Weather ElementAverageHighLow
Temperature42.6 °F51.8 °F (1:35 pm)33.8 °F (5:55 am)
Dewpoint24.1 °F28.4 °F (12:35 am)19.4 °F (2:55 pm)
Humidity50.4 %75 % (5:55 am)28 % (2:55 pm)
Barometer30.11 in30.21 in (10:55 pm)29.96 in (12:35 am)
Wind Speed9.6 mph16.1 mph (1:35 am)
Wind Gust25.3 mph (12:35 am)
Weather ElementAverage
Visibility10 mi
Wind DirectionWNW (276.4 °)

Weather ElementTotal
Precipitation---
Heating Degree Days22.2 (Base 65)
Averaged from 69 records on January 31, 2013
WEATHER CONDITIONS BREAKOUT
WIND DIRECTION BREAKOUT
WEATHER BY HOUR - JANUARY 31, 2013
[ °C ]   °F
Local TimeTemperatureDewpointHumidityBarometerVisibilityWind DirectionWind SpeedGust SpeedPrecipitationEventsConditions
12:35 AM41.0 °F28.4 °F61 %29.96 in10.0 miWest (280°)13.8 mph25.3 mphMostly Cloudy
12:55 AM41.0 °F28.4 °F61 %29.97 in10.0 miWest (280°)12.7 mph23.0 mphMostly Cloudy
1:15 AM39.2 °F28.4 °F65 %29.98 in10.0 miWNW (290°)15.0 mph24.2 mphScattered Clouds
1:35 AM39.2 °F28.4 °F65 %29.98 in10.0 miWest (280°)16.1 mph23.0 mphClear
1:55 AM39.2 °F28.4 °F65 %29.99 in10.0 miWest (280°)10.4 mph21.9 mphClear
2:15 AM39.2 °F28.4 °F65 %30.00 in10.0 miWNW (290°)11.5 mphClear
2:35 AM39.2 °F28.4 °F65 %30.00 in10.0 miWNW (300°)11.5 mphClear
2:55 AM37.4 °F28.4 °F70 %30.00 in10.0 miWNW (290°)11.5 mph17.3 mphClear
3:15 AM37.4 °F28.4 °F70 %30.00 in10.0 miWNW (290°)6.9 mph16.1 mphClear
3:35 AM37.4 °F28.4 °F70 %30.02 in10.0 miWest (270°)8.1 mphClear
3:55 AM37.4 °F26.6 °F65 %30.03 in10.0 miWest (280°)6.9 mphClear
4:15 AM37.4 °F26.6 °F65 %30.03 in10.0 miWest (280°)8.1 mphClear
4:35 AM35.6 °F26.6 °F70 %30.04 in10.0 miWest (270°)6.9 mphClear
4:55 AM35.6 °F26.6 °F70 %30.05 in10.0 miWest (260°)6.9 mphClear
5:15 AM35.6 °F26.6 °F70 %30.05 in10.0 miWest (260°)5.8 mphClear
5:35 AM35.6 °F26.6 °F70 %30.04 in10.0 miWest (270°)6.9 mphClear
5:55 AM33.8 °F26.6 °F75 %30.05 in10.0 miWest (270°)5.8 mphClear
6:15 AM33.8 °F26.6 °F75 %30.06 in10.0 miWest (280°)5.8 mphClear
6:35 AM33.8 °F26.6 °F75 %30.06 in10.0 miWest (270°)5.8 mphClear
6:55 AM33.8 °F24.8 °F70 %30.06 in10.0 miWest (280°)6.9 mphClear
7:15 AM33.8 °F24.8 °F70 %30.07 in10.0 miWNW (290°)9.2 mphClear
7:35 AM35.6 °F24.8 °F65 %30.09 in10.0 miWest (280°)10.4 mphClear
7:55 AM35.6 °F24.8 °F65 %30.10 in10.0 miWest (280°)8.1 mphClear
8:15 AM37.4 °F24.8 °F60 %30.11 in10.0 miWNW (290°)13.8 mph17.3 mphClear
8:35 AM39.2 °F26.6 °F61 %30.12 in10.0 miWest (280°)10.4 mph20.7 mphClear
8:55 AM39.2 °F24.8 °F56 %30.12 in10.0 miWest (280°)11.5 mph19.6 mphClear
9:15 AM39.2 °F26.6 °F61 %30.13 in10.0 miNW (310°)12.7 mphClear
9:35 AM42.8 °F24.8 °F49 %30.14 in10.0 miWNW (290°)12.7 mphClear
9:55 AM42.8 °F24.8 °F49 %30.14 in10.0 miWNW (290°)11.5 mph21.9 mphClear
10:15 AM44.6 °F21.2 °F39 %30.15 in10.0 miWNW (300°)12.7 mph20.7 mphClear
10:35 AM44.6 °F23.0 °F43 %30.16 in10.0 miWNW (290°)16.1 mph23.0 mphClear
10:55 AM44.6 °F21.2 °F39 %30.16 in10.0 miWNW (300°)10.4 mph20.7 mphClear
11:15 AM46.4 °F21.2 °F37 %30.17 in10.0 miWNW (300°)16.1 mph21.9 mphClear
11:35 AM46.4 °F23.0 °F40 %30.17 in10.0 miWest (280°)12.7 mph19.6 mphClear
11:55 AM46.4 °F23.0 °F40 %30.16 in10.0 miNW (310°)11.5 mph17.3 mphClear
12:15 PM48.2 °F23.0 °F37 %30.15 in10.0 miWNW (300°)13.8 mph19.6 mphClear
12:35 PM48.2 °F21.2 °F34 %30.14 in10.0 miWest (280°)13.8 mph19.6 mphClear
12:55 PM48.2 °F21.2 °F34 %30.14 in10.0 miNW (310°)16.1 mph24.2 mphClear
1:15 PM50.0 °F21.2 °F32 %30.14 in10.0 miNW (310°)12.7 mph24.2 mphClear
1:35 PM51.8 °F21.2 °F30 %30.14 in10.0 miNW (310°)10.4 mph19.6 mphClear
1:55 PM51.8 °F21.2 °F30 %30.14 in10.0 miNW (310°)16.1 mph21.9 mphClear
2:15 PM51.8 °F21.2 °F30 %30.14 in10.0 miWNW (300°)15.0 mph19.6 mphClear
2:35 PM51.8 °F21.2 °F30 %30.13 in10.0 miNW (310°)13.8 mphClear
2:55 PM51.8 °F19.4 °F28 %30.13 in10.0 miWNW (300°)10.4 mph21.9 mphClear
3:15 PM51.8 °F21.2 °F30 %30.13 in10.0 miNW (310°)9.2 mph18.4 mphClear
3:35 PM51.8 °F21.2 °F30 %30.13 in10.0 miNW (310°)12.7 mphClear
3:55 PM50.0 °F21.2 °F32 %30.14 in10.0 miWest (280°)10.4 mphClear
4:15 PM50.0 °F21.2 °F32 %30.14 in10.0 miWNW (290°)12.7 mphClear
4:35 PM48.2 °F21.2 °F34 %30.14 in10.0 miWNW (300°)10.4 mphClear
4:55 PM48.2 °F21.2 °F34 %30.15 in10.0 miWest (280°)6.9 mphClear
5:15 PM46.4 °F21.2 °F37 %30.14 in10.0 miWest (270°)5.8 mphClear
5:35 PM46.4 °F21.2 °F37 %30.15 in10.0 miWest (270°)4.6 mphClear
5:55 PM46.4 °F21.2 °F37 %30.15 in10.0 miWest (280°)3.5 mphClear
6:15 PM46.4 °F21.2 °F37 %30.16 in10.0 miWest (270°)4.6 mphClear
6:35 PM44.6 °F21.2 °F39 %30.17 in10.0 miWSW (240°)3.5 mphClear
6:55 PM44.6 °F21.2 °F39 %30.18 in10.0 miWest (260°)3.5 mphClear
7:15 PM44.6 °F23.0 °F43 %30.18 in10.0 miWest (260°)3.5 mphClear
7:35 PM44.6 °F23.0 °F43 %30.18 in10.0 miWSW (240°)4.6 mphClear
7:55 PM44.6 °F23.0 °F43 %30.18 in10.0 miSW (230°)6.9 mphClear
8:15 PM42.8 °F23.0 °F46 %30.18 in10.0 miSW (230°)6.9 mphClear
8:35 PM42.8 °F24.8 °F49 %30.19 in10.0 miSW (230°)6.9 mphClear
9:15 PM42.8 °F24.8 °F49 %30.19 in10.0 miWSW (240°)5.8 mphClear
9:35 PM42.8 °F24.8 °F49 %30.20 in10.0 miWSW (240°)5.8 mphClear
10:15 PM41.0 °F24.8 °F53 %30.20 in10.0 miSW (220°)6.9 mphClear
10:35 PM39.2 °F24.8 °F56 %30.20 in10.0 miSW (230°)6.9 mphClear
10:55 PM39.2 °F24.8 °F56 %30.21 in10.0 miSW (230°)6.9 mphClear
11:15 PM41.0 °F24.8 °F53 %30.21 in10.0 miSW (230°)8.1 mphClear
11:35 PM41.0 °F23.0 °F49 %30.21 in10.0 miSW (230°)8.1 mphClear
11:55 PM41.0 °F24.8 °F53 %30.20 in10.0 miSW (230°)10.4 mphClear
Hourly data recorded from KAUO, located miles away from Auburn, Alabama







STORIES FROM OUR PARTNERS